Hourly Data Report for September 17, 2017

All times are specified in Local Standard Time (LST). Add 1 hour to adjust for Daylight Saving Time where and when it is observed.

IQALUIT CLIMATE
NUNAVUT

63°44'50.000" N
68°32'40.000" W
33.50 m
2402592
71321
XFB

Download Data

Hourly Data (September 2017)
Hourly Data Report for September 17, 2017
Temp Definition
°C
Dew Point Temp Definition
°C
Rel Hum Definition
%
Wind Dir Definition
10's deg

Wind Spd Definition
km/h
Visibility Definition
km
Stn Press Definition
kPa
Hmdx Definition


Wind Chill Definition


Weather Definition


TIME
00:00 1.3 -0.4 88 32 13   101.15     LegendNANA
01:00 1.4 -0.3 89 32 13   101.18     LegendNANA
02:00 1.8 0.0 88 32 16   101.23     LegendNANA
03:00 2.0 -0.6 83 32 18   101.27     LegendNANA
04:00 1.2 -0.4 89 33 22   101.31     LegendNANA
05:00 1.1 -0.6 89 34 16   101.39     LegendNANA
06:00 2.3 0.1 86 32 17   101.44     LegendNANA
07:00 2.3 -0.1 84 32 19   101.53     LegendNANA
08:00 3.0 -0.6 77 34 28   101.58     LegendNANA
09:00 3.9 -1.1 70 33 24   101.61     LegendNANA
10:00 4.6 -1.0 67 33 29   101.64     LegendNANA
11:00 5.0 1.4 78 33 30   101.66     LegendNANA
12:00 4.4 0.8 78 33 31   101.70     LegendNANA
13:00 4.1 0.6 78 33 33   101.75     LegendNANA
14:00 5.1 -0.7 66 33 30   101.78     LegendNANA
15:00 5.3 -0.4 67 32 24   101.79     LegendNANA
16:00 4.8 -0.6 68 32 22   101.84     LegendNANA
17:00 4.4 0.0 73 31 21   101.89     LegendNANA
18:00 2.6 -0.8 78 32 14   101.92     LegendNANA
19:00 1.3 -1.2 83 33 12   101.94     LegendNANA
20:00 0.6 -1.4 87 33 9   101.94     LegendNANA
21:00 1.3 -0.7 87 36 5   101.96     LegendNANA
22:00 1.4 -0.4 88 33 3   101.96     LegendNANA
23:00 1.0 -0.6 89 1 3   101.96     LegendNANA

Notes on Data Quality.

Legend

  • E = Estimated
  • M = Missing
  • NA = Not Available
  • ‡ = Partner data that is not subject to review by the National Climate Archives
Date modified: